DW4915 Mazarete ES current weather conditions

sailwx.info

Wind from 042

Air temperature 8.9° C
Dewpoint 5.6° C

Last reported at 2014-Oct-24 22:51 UTC.
Time now 2014-Oct-24 23:59 UTC

Location: N 40°58' W 002°11'.
View on Google Maps.

See reports from other nearby stations

  
Tides and Currents Weather Stations Pressure Air Temp Water Temp Dewpoint Dewpoint Depression Visibility Wind Speed Wind Dir Waves Ship Positions
date/time (UTC)wind fromknots sea level pressurealtimeterstation pressurevisibilityair tempwater tempwave heightnotes
2014-Oct-24 22:51 042 8.9
2014-Oct-24 22:46 043 8.9
2014-Oct-24 22:36 042 9.4
2014-Oct-24 22:31 043 9.4
2014-Oct-24 22:26 042 10.0
2014-Oct-24 22:16 044 0 gusting 4 10.0
2014-Oct-24 22:11 043 1 gusting 4 10.0
2014-Oct-24 22:06 043 2 gusting 4 9.4
2014-Oct-24 22:01 041 2 gusting 6 9.4
2014-Oct-24 21:56 044 2 gusting 5 8.9
2014-Oct-24 21:51 042 0 gusting 4 8.9
2014-Oct-24 21:46 043 1 gusting 3 8.9
2014-Oct-24 21:41 042 8.9
2014-Oct-24 21:31 042 8.9
2014-Oct-24 21:21 044 8.9
2014-Oct-24 21:11 042 9.4
2014-Oct-24 21:06 043 9.4
2014-Oct-24 21:01 041 9.4
2014-Oct-24 20:56 042 9.4
2014-Oct-24 20:46 043 10.0
2014-Oct-24 20:41 042 10.6
2014-Oct-24 20:36 042 10.6
2014-Oct-24 20:31 043 11.1
2014-Oct-24 20:26 044 11.1
2014-Oct-24 20:16 044 12.2
2014-Oct-24 20:11 042 2 gusting 5 12.2
2014-Oct-24 20:06 043 3 gusting 5 12.2
2014-Oct-24 20:01 044 4 gusting 5 12.2
2014-Oct-24 19:56 042 4 gusting 5 12.8
2014-Oct-24 19:51 042 4 gusting 6 12.8
2014-Oct-24 19:46 044 5 gusting 6 12.8
2014-Oct-24 19:41 042 6 gusting 6 12.8
2014-Oct-24 19:36 043 4 gusting 7 13.3
2014-Oct-24 19:31 043 6 gusting 7 13.3
2014-Oct-24 19:26 043 5 gusting 6 13.3
2014-Oct-24 19:21 044 5 gusting 6 13.3
2014-Oct-24 19:16 042 4 gusting 6 13.3
2014-Oct-24 19:11 044 5 gusting 7 13.3
2014-Oct-24 19:06 042 6 gusting 7 12.8
2014-Oct-24 18:56 042 4 gusting 6 12.8
2014-Oct-24 18:51 043 4 gusting 6 12.8
2014-Oct-24 18:46 043 4 gusting 6 12.8
2014-Oct-24 18:41 042 5 gusting 6 13.3
2014-Oct-24 18:36 043 4 gusting 5 13.3
2014-Oct-24 18:31 042 3 gusting 6 13.3
2014-Oct-24 18:26 042 4 gusting 7 13.3
2014-Oct-24 18:21 042 5 gusting 7 12.8
2014-Oct-24 18:16 042 12.8
2014-Oct-24 18:11 042 1 gusting 2 12.8
2014-Oct-24 18:06 042 0 gusting 3 13.3
2014-Oct-24 17:56 043 0 gusting 4 13.9
2014-Oct-24 17:51 041 14.4
2014-Oct-24 17:41 044 14.4
2014-Oct-24 17:36 044 15.0
2014-Oct-24 17:31 044 3 gusting 4 15.6
2014-Oct-24 17:21 044 0 gusting 4 16.7
2014-Oct-24 17:16 043 1 gusting 3 17.2
2014-Oct-24 17:11 041 0 gusting 3 17.8
2014-Oct-24 17:01 044 3 gusting 4 18.9
2014-Oct-24 16:56 041 2 gusting 5 19.4
2014-Oct-24 16:46 043 1 gusting 4 20.0
2014-Oct-24 16:41 044 1 gusting 6 20.0
2014-Oct-24 16:36 042 4 gusting 7 20.6
2014-Oct-24 16:31 048 4 gusting 7 20.6
2014-Oct-24 16:26 051 3 gusting 6 20.6
2014-Oct-24 16:21 052 2 gusting 10 21.1
2014-Oct-24 16:16 053 5 gusting 10 21.1
2014-Oct-24 16:06 052 3 gusting 12 21.1
2014-Oct-24 16:01 042 5 gusting 12 21.7
2014-Oct-24 15:56 057 6 gusting 9 21.7
2014-Oct-24 15:51 034 2 gusting 8 21.7
2014-Oct-24 15:46 040 3 gusting 8 21.7
2014-Oct-24 15:36 031 2 gusting 7 21.7
2014-Oct-24 15:26 025 2 gusting 10 21.7
2014-Oct-24 15:21 025 3 gusting 10 22.2
2014-Oct-24 15:16 015 2 gusting 12 22.2
2014-Oct-24 15:06 023 2 gusting 8 22.2
2014-Oct-24 15:01 044 4 gusting 10 22.2
2014-Oct-24 14:56 031 6 gusting 10 22.2
2014-Oct-24 14:46 037 5 gusting 19 22.8
2014-Oct-24 14:16 033 5 gusting 10 22.2
2014-Oct-24 14:11 049 4 gusting 10 22.2
2014-Oct-24 14:06 019 5 gusting 10 22.2
2014-Oct-24 14:01 340 5 gusting 9 22.2
2014-Oct-24 13:56 054 6 gusting 11 22.2
2014-Oct-24 13:51 044 3 gusting 13 22.2
2014-Oct-24 13:46 050 6 gusting 13 22.2
2014-Oct-24 13:36 041 4 gusting 13 22.2
2014-Oct-24 13:31 050 4 gusting 12 22.2
2014-Oct-24 13:21 023 5 gusting 13 22.2
2014-Oct-24 13:16 029 3 gusting 10 22.2
2014-Oct-24 13:11 036 4 gusting 9 21.7
2014-Oct-24 13:01 011 5 gusting 9 21.7
2014-Oct-24 12:56 029 1 gusting 13 21.1
2014-Oct-24 12:51 009 4 gusting 13 21.7
2014-Oct-24 12:41 009 4 gusting 10 21.7
2014-Oct-24 12:36 020 4 gusting 12 21.7
2014-Oct-24 12:31 358 6 gusting 12 21.7
2014-Oct-24 12:26 017 3 gusting 11 21.7
2014-Oct-24 12:21 029 4 gusting 11 21.7
2014-Oct-24 12:16 010 4 gusting 10 21.1
2014-Oct-24 12:11 023 2 gusting 13 21.1
2014-Oct-24 12:06 354 4 gusting 14 21.1
2014-Oct-24 12:01 029 4 gusting 14 21.1
2014-Oct-24 11:51 018 5 gusting 10 20.0
2014-Oct-24 11:46 017 1 gusting 8 20.0
2014-Oct-24 11:36 031 4 gusting 8 20.0
2014-Oct-24 11:31 040 3 gusting 13 20.6
2014-Oct-24 11:21 018 3 gusting 13 20.6
2014-Oct-24 11:11 002 4 gusting 10 20.0
2014-Oct-24 11:06 017 4 gusting 10 20.0
2014-Oct-24 11:01 019 4 gusting 9 20.0
2014-Oct-24 10:51 353 4 gusting 11 20.0
2014-Oct-24 10:46 007 5 gusting 11 20.0
2014-Oct-24 10:36 355 3 gusting 11 20.0
2014-Oct-24 10:31 014 3 gusting 12 20.0
2014-Oct-24 10:26 009 6 gusting 12 20.0
2014-Oct-24 10:21 009 5 gusting 11 19.4
2014-Oct-24 10:16 027 4 gusting 12 19.4
2014-Oct-24 10:11 008 3 gusting 10 19.4
2014-Oct-24 10:01 009 6 gusting 13 19.4
2014-Oct-24 09:56 059 3 gusting 10 19.4
2014-Oct-24 09:51 025 4 gusting 10 19.4
2014-Oct-24 09:46 011 4 gusting 9 18.9
2014-Oct-24 09:36 020 4 gusting 9 18.9
2014-Oct-24 09:31 017 3 gusting 11 18.9
2014-Oct-24 09:26 020 4 gusting 11 18.3
2014-Oct-24 09:21 013 4 gusting 7 18.3
2014-Oct-24 09:16 028 5 gusting 11 18.3
2014-Oct-24 09:11 046 4 gusting 9 18.3
2014-Oct-24 09:06 011 4 gusting 11 17.8
2014-Oct-24 09:01 002 4 gusting 9 17.8
2014-Oct-24 08:56 007 3 gusting 8 17.2
2014-Oct-24 08:46 015 4 gusting 8 17.2
2014-Oct-24 08:41 024 5 gusting 8 16.7
2014-Oct-24 08:36 010 2 gusting 7 16.7
2014-Oct-24 08:31 012 4 gusting 6 16.1
2014-Oct-24 08:26 023 2 gusting 8 16.1
2014-Oct-24 08:16 013 3 gusting 7 15.6
2014-Oct-24 08:11 014 2 gusting 8 15.0
2014-Oct-24 08:06 011 4 gusting 8 15.0
2014-Oct-24 07:56 017 2 gusting 6 13.9
2014-Oct-24 07:46 023 1 gusting 5 13.3
2014-Oct-24 07:36 031 2 gusting 7 12.8
2014-Oct-24 07:31 034 3 gusting 7 12.2
2014-Oct-24 07:26 033 3 gusting 6 11.7
2014-Oct-24 07:16 029 2 gusting 5 11.1
2014-Oct-24 07:11 026 1 gusting 4 11.1
2014-Oct-24 07:01 034 1 gusting 4 11.1
2014-Oct-24 06:56 036 0 gusting 5 11.1
2014-Oct-24 06:51 036 1 gusting 6 11.1
2014-Oct-24 06:46 034 2 gusting 6 11.1
2014-Oct-24 06:41 038 1 gusting 6 11.1
2014-Oct-24 06:36 035 0 gusting 10 11.1
2014-Oct-24 06:31 034 5 gusting 10 11.1
2014-Oct-24 06:21 019 4 gusting 6 11.7
2014-Oct-24 06:16 016 1 gusting 6 11.1
2014-Oct-24 06:11 011 0 gusting 6 11.1
2014-Oct-24 06:01 019 2 gusting 6 11.1
2014-Oct-24 05:56 019 3 gusting 6 11.1
2014-Oct-24 05:46 018 0 gusting 4 11.1
2014-Oct-24 05:41 017 0 gusting 4 11.1
2014-Oct-24 05:36 019 1 gusting 6 11.1
2014-Oct-24 05:31 020 2 gusting 6 11.1
2014-Oct-24 05:21 008 11.7
2014-Oct-24 05:16 006 0 gusting 4 11.7
2014-Oct-24 05:11 003 0 gusting 5 11.7
2014-Oct-24 05:01 002 4 gusting 7 12.2
2014-Oct-24 04:56 004 5 gusting 7 12.2
2014-Oct-24 04:46 015 2 gusting 5 11.1
2014-Oct-24 04:41 010 3 gusting 5 10.6
2014-Oct-24 04:36 011 1 gusting 5 10.6
2014-Oct-24 04:31 011 1 gusting 3 10.0
2014-Oct-24 04:21 011 9.4
2014-Oct-24 04:16 010 8.9
2014-Oct-24 04:11 010 8.3
2014-Oct-24 04:01 011 7.2
2014-Oct-24 03:56 009 7.2
2014-Oct-24 03:51 011 6.7
2014-Oct-24 03:46 012 6.7
2014-Oct-24 03:36 009 7.2
2014-Oct-24 03:31 010 7.2
2014-Oct-24 03:26 009 7.8
2014-Oct-24 03:16 010 8.3
2014-Oct-24 03:11 012 8.3
2014-Oct-24 03:01 010 8.3
2014-Oct-24 02:56 010 8.3
2014-Oct-24 02:51 010 8.9
2014-Oct-24 02:46 011 8.9
2014-Oct-24 02:41 011 8.9
2014-Oct-24 02:31 011 9.4
2014-Oct-24 02:26 010 9.4
2014-Oct-24 02:16 010 10.0
2014-Oct-24 02:11 011 10.6
2014-Oct-24 02:06 011 0 gusting 4 11.1
2014-Oct-24 02:01 010 2 gusting 4 11.1
2014-Oct-24 01:56 011 11.7
2014-Oct-24 01:51 011 1 gusting 4 11.7
2014-Oct-24 01:41 011 12.2
2014-Oct-24 01:36 009 12.2
2014-Oct-24 01:31 009 0 gusting 3 12.2
2014-Oct-24 01:26 009 12.8
2014-Oct-24 01:21 009 12.8
2014-Oct-24 01:16 006 0 gusting 6 12.8
2014-Oct-24 01:06 352 3 gusting 7 12.8
2014-Oct-24 01:01 352 3 gusting 10 13.3
2014-Oct-24 00:56 352 3 gusting 10 13.3
2014-Oct-24 00:51 357 3 gusting 7 13.3
2014-Oct-24 00:46 360 3 gusting 7 13.3
2014-Oct-24 00:41 355 3 gusting 7 13.3
2014-Oct-24 00:31 360 4 gusting 9 13.3
2014-Oct-24 00:26 004 3 gusting 9 13.3
2014-Oct-24 00:21 002 5 gusting 10 13.3
2014-Oct-24 00:11 006 5 gusting 10 13.3
2014-Oct-24 00:06 011 3 gusting 7 13.3
2014-Oct-24 00:01 015 3 gusting 7 13.3
2014-Oct-23 23:56 020 3 gusting 9 13.3
2014-Oct-23 23:46 009 5 gusting 6 12.8
2014-Oct-23 23:36 013 2 gusting 5 11.7
2014-Oct-23 23:31 015 0 gusting 6 11.1
2014-Oct-23 23:26 015 0 gusting 6 10.6
2014-Oct-23 23:16 015 10.0
2014-Oct-23 23:11 015 3 gusting 4 10.6
2014-Oct-23 23:06 014 10.6
2014-Oct-23 22:56 015 10.6
2014-Oct-23 22:51 014 10.6
2014-Oct-23 22:46 015 11.1
2014-Oct-23 22:41 015 10.6
2014-Oct-23 22:36 015 10.6
2014-Oct-23 22:31 015 11.1
2014-Oct-23 22:26 015 11.1
2014-Oct-23 22:16 016 11.1
2014-Oct-23 22:11 014 11.1
2014-Oct-23 22:06 015 11.1
2014-Oct-23 21:56 015 11.7
2014-Oct-23 21:41 015 11.7
2014-Oct-23 21:36 014 0 gusting 2 11.7
2014-Oct-23 21:26 016 0 gusting 3 11.7
2014-Oct-23 21:21 014 0 gusting 3 11.7
2014-Oct-23 21:06 015 0 gusting 6 11.7
2014-Oct-23 20:56 013 0 gusting 4 11.7
2014-Oct-23 20:41 013 1 gusting 5 11.7
2014-Oct-23 20:36 013 1 gusting 4 11.7
2014-Oct-23 20:21 013 2 gusting 5 12.2
2014-Oct-23 20:16 014 0 gusting 5 12.2
2014-Oct-23 20:11 013 2 gusting 5 12.2
2014-Oct-23 20:06 009 2 gusting 5 12.2
2014-Oct-23 20:01 006 0 gusting 5 12.8
2014-Oct-23 19:51 005 0 gusting 3 12.8
2014-Oct-23 19:41 005 0 gusting 5 13.3
2014-Oct-23 19:31 002 2 gusting 6 13.3
2014-Oct-23 19:21 356 2 gusting 6 13.3
2014-Oct-23 19:16 356 2 gusting 6 13.3
2014-Oct-23 19:11 357 1 gusting 6 13.3
2014-Oct-23 19:01 356 2 gusting 6 13.9
2014-Oct-23 18:46 352 5 gusting 8 13.9
2014-Oct-23 18:31 352 2 gusting 6 13.3
2014-Oct-23 18:26 352 0 gusting 3 13.9
2014-Oct-23 18:16 350 13.9
2014-Oct-23 18:06 352 0 gusting 5 14.4
2014-Oct-23 18:01 351 2 gusting 7 15.0
2014-Oct-23 17:51 353 4 gusting 7 15.6
2014-Oct-23 17:46 350 4 gusting 7 15.6
2014-Oct-23 17:41 350 3 gusting 7 15.6
2014-Oct-23 17:31 352 3 gusting 8 16.1
2014-Oct-23 17:21 347 6 gusting 10 16.1
2014-Oct-23 17:16 349 6 gusting 9 16.1
2014-Oct-23 17:11 345 5 gusting 8 16.7
2014-Oct-23 17:06 343 4 gusting 8 16.7
2014-Oct-23 16:56 343 6 gusting 11 17.2
2014-Oct-23 16:51 345 6 gusting 11 17.2
2014-Oct-23 16:41 343 6 gusting 8 17.2
2014-Oct-23 16:31 344 4 gusting 8 17.2
2014-Oct-23 16:26 346 5 gusting 8 17.8
2014-Oct-23 16:21 345 5 gusting 9 17.8
2014-Oct-23 16:16 345 6 gusting 11 17.8
2014-Oct-23 16:11 341 6 gusting 10 18.3
2014-Oct-23 16:06 339 6 gusting 10 18.3
2014-Oct-23 15:56 348 8 gusting 11 18.9
2014-Oct-23 15:51 349 8 gusting 13 18.3
2014-Oct-23 15:46 349 6 gusting 13 18.3
2014-Oct-23 15:41 358 6 gusting 8 18.3
2014-Oct-23 15:31 348 7 gusting 13 18.9
2014-Oct-23 15:26 359 6 gusting 13 18.9
2014-Oct-23 15:16 015 5 gusting 12 19.4
2014-Oct-23 15:11 354 6 gusting 12 19.4
2014-Oct-23 15:06 351 6 gusting 12 19.4
2014-Oct-23 15:01 359 5 gusting 11 19.4
2014-Oct-23 14:51 355 6 gusting 15 19.4
2014-Oct-23 14:46 349 12 gusting 15 20.0
2014-Oct-23 14:41 022 6 gusting 18 20.0
2014-Oct-23 14:31 348 7 gusting 15 20.0
2014-Oct-23 14:26 360 10 gusting 15 20.6
2014-Oct-23 14:21 348 6 gusting 18 20.6
2014-Oct-23 14:16 011 10 gusting 18 20.6
2014-Oct-23 14:11 001 8 gusting 13 20.6
2014-Oct-23 14:01 348 13 gusting 18 20.6
2014-Oct-23 13:56 002 7 gusting 14 20.6
2014-Oct-23 13:51 332 8 gusting 16 20.6
2014-Oct-23 13:46 335 11 gusting 17 20.0
2014-Oct-23 13:41 355 8 gusting 13 20.0
2014-Oct-23 13:36 358 9 gusting 16 20.0
2014-Oct-23 13:26 357 4 gusting 13 20.6
2014-Oct-23 13:21 028 6 gusting 14 20.6
2014-Oct-23 13:16 061 8 gusting 13 20.6
2014-Oct-23 13:11 356 5 gusting 13 20.6
2014-Oct-23 13:01 352 11 gusting 16 20.0
2014-Oct-23 12:56 359 10 gusting 16 20.0
2014-Oct-23 12:46 339 8 gusting 14 20.0
2014-Oct-23 12:41 001 8 gusting 17 20.0
2014-Oct-23 12:36 018 11 gusting 18 19.4
2014-Oct-23 12:26 341 7 gusting 17 20.0
2014-Oct-23 12:21 350 11 gusting 17 19.4
2014-Oct-23 12:16 348 12 gusting 16 20.0
2014-Oct-23 12:11 351 9 gusting 17 19.4
2014-Oct-23 12:06 058 6 gusting 17 19.4
2014-Oct-23 12:01 339 6 gusting 12 20.0
2014-Oct-23 11:56 011 4 gusting 12 20.0
2014-Oct-23 11:51 008 6 gusting 12 20.0
2014-Oct-23 11:46 010 5 gusting 13 19.4
2014-Oct-23 11:41 346 8 gusting 17 19.4
2014-Oct-23 11:36 351 11 gusting 17 19.4
2014-Oct-23 11:26 350 7 gusting 12 19.4
2014-Oct-23 11:21 356 5 gusting 12 18.9
2014-Oct-23 11:16 023 4 gusting 13 18.9
2014-Oct-23 11:11 002 7 gusting 15 18.9
2014-Oct-23 11:01 350 6 gusting 15 18.3
2014-Oct-23 10:56 353 11 gusting 14 18.3
2014-Oct-23 10:51 354 8 gusting 14 18.3
2014-Oct-23 10:46 355 8 gusting 14 18.3
2014-Oct-23 10:41 354 6 gusting 16 18.3
2014-Oct-23 10:31 345 6 gusting 14 18.3
2014-Oct-23 10:26 007 8 gusting 18 18.3
2014-Oct-23 10:16 013 5 gusting 12 17.8
2014-Oct-23 10:11 339 6 gusting 13 17.8
2014-Oct-23 10:06 350 9 gusting 13 17.8
2014-Oct-23 09:56 359 6 gusting 13 17.8
2014-Oct-23 09:51 001 7 gusting 13 17.2
2014-Oct-23 09:46 348 6 gusting 13 17.2
2014-Oct-23 09:41 348 7 gusting 12 17.2
2014-Oct-23 09:36 036 3 gusting 7 17.2
2014-Oct-23 09:31 011 3 gusting 13 17.2
2014-Oct-23 09:26 019 2 gusting 10 16.7
2014-Oct-23 09:21 051 2 gusting 7 16.1
2014-Oct-23 09:16 016 1 gusting 7 16.1
2014-Oct-23 09:11 010 3 gusting 7 16.1
2014-Oct-23 09:06 010 4 gusting 7 15.6
2014-Oct-23 09:01 015 2 gusting 12 15.6
2014-Oct-23 08:56 021 3 gusting 12 15.0
2014-Oct-23 08:51 015 4 gusting 10 15.0
2014-Oct-23 08:46 352 3 gusting 10 15.0
2014-Oct-23 08:36 007 4 gusting 6 14.4
2014-Oct-23 08:31 023 4 gusting 9 14.4
2014-Oct-23 08:21 026 3 gusting 7 13.9
2014-Oct-23 08:16 015 3 gusting 7 13.9
2014-Oct-23 08:11 022 2 gusting 7 13.9
2014-Oct-23 08:01 010 1 gusting 6 13.3
2014-Oct-23 07:56 025 3 gusting 5 13.3
2014-Oct-23 07:51 020 2 gusting 6 12.8
2014-Oct-23 07:41 029 3 gusting 6 12.2
2014-Oct-23 07:36 019 2 gusting 6 12.2
2014-Oct-23 07:26 023 2 gusting 8 11.7
2014-Oct-23 07:21 018 3 gusting 8 11.1
2014-Oct-23 07:16 023 2 gusting 6 10.6
2014-Oct-23 07:11 034 2 gusting 6 10.6
2014-Oct-23 07:06 031 2 gusting 6 10.0
2014-Oct-23 07:01 031 2 gusting 6 10.0
2014-Oct-23 06:51 035 3 gusting 9 9.4
2014-Oct-23 06:46 037 3 gusting 7 9.4
2014-Oct-23 06:41 024 2 gusting 5 9.4
2014-Oct-23 06:31 024 2 gusting 7 10.0
2014-Oct-23 06:26 009 2 gusting 7 10.0
2014-Oct-23 06:21 013 1 gusting 7 10.0
2014-Oct-23 06:16 010 1 gusting 6 10.0
2014-Oct-23 06:11 012 2 gusting 7 10.0
2014-Oct-23 06:06 007 1 gusting 6 9.4
2014-Oct-23 06:01 010 2 gusting 6 9.4
2014-Oct-23 05:56 019 1 gusting 5 9.4
2014-Oct-23 05:51 025 2 gusting 5 9.4
2014-Oct-23 05:46 026 2 gusting 6 9.4
2014-Oct-23 05:41 027 2 gusting 6 9.4
2014-Oct-23 05:31 022 1 gusting 5 9.4
2014-Oct-23 05:26 021 1 gusting 7 9.4
2014-Oct-23 05:16 033 2 gusting 5 9.4
2014-Oct-23 05:11 023 1 gusting 5 9.4
2014-Oct-23 05:06 023 1 gusting 5 8.9
2014-Oct-23 04:56 026 2 gusting 6 8.9
2014-Oct-23 04:51 028 3 gusting 7 8.9
2014-Oct-23 04:46 018 2 gusting 5 8.3
2014-Oct-23 04:41 007 1 gusting 6 8.3
2014-Oct-23 04:36 008 2 gusting 6 8.9
2014-Oct-23 04:31 007 1 gusting 5 8.9
2014-Oct-23 04:26 006 0 gusting 5 8.9
2014-Oct-23 04:21 004 1 gusting 5 8.9
2014-Oct-23 04:16 004 0 gusting 6 8.9
2014-Oct-23 04:11 360 1 gusting 6 8.9
2014-Oct-23 04:06 359 0 gusting 4 8.9
2014-Oct-23 04:01 356 1 gusting 5 8.9
2014-Oct-23 03:56 352 1 gusting 4 8.9
2014-Oct-23 03:51 348 1 gusting 4 9.4
2014-Oct-23 03:46 348 0 gusting 4 9.4
2014-Oct-23 03:36 348 0 gusting 4 10.0
2014-Oct-23 03:31 348 1 gusting 6 10.6
2014-Oct-23 03:26 348 1 gusting 6 10.6
2014-Oct-23 03:21 347 3 gusting 9 10.6
2014-Oct-23 03:16 346 5 gusting 9 10.6
2014-Oct-23 03:11 345 4 gusting 8 10.6
2014-Oct-23 03:06 345 6 gusting 8 10.0
2014-Oct-23 03:01 345 4 gusting 9 10.0
2014-Oct-23 02:56 345 4 gusting 9 10.0
2014-Oct-23 02:51 335 6 gusting 9 9.4
2014-Oct-23 02:46 287 3 gusting 6 7.8
2014-Oct-23 02:41 278 0 gusting 6 6.7
2014-Oct-23 02:31 250 6.1
2014-Oct-23 02:26 250 6.7
2014-Oct-23 02:21 251 7.2
2014-Oct-23 02:16 252 7.8
2014-Oct-23 02:11 250 8.3
2014-Oct-23 02:06 250 0 gusting 3 8.9
2014-Oct-23 01:56 268 2 gusting 5 10.0
2014-Oct-23 01:51 025 1 gusting 3 10.6
2014-Oct-23 01:46 025 10.6
2014-Oct-23 01:41 025 11.1
2014-Oct-23 01:36 023 0 gusting 10 11.1
2014-Oct-23 01:31 031 2 gusting 10 11.1
2014-Oct-23 01:26 013 2 gusting 9 11.1
2014-Oct-23 01:21 358 3 gusting 7 10.6
2014-Oct-23 01:16 025 3 gusting 7 10.6
2014-Oct-23 01:11 011 2 gusting 8 10.0
2014-Oct-23 01:06 360 4 gusting 8 10.0
2014-Oct-23 01:01 009 2 gusting 9 10.0
2014-Oct-23 00:56 016 3 gusting 9 9.4
2014-Oct-23 00:51 010 2 gusting 6 9.4
2014-Oct-23 00:41 015 2 gusting 6 10.0
2014-Oct-23 00:36 012 1 gusting 6 10.0
2014-Oct-23 00:31 012 3 gusting 6 10.0
2014-Oct-23 00:26 009 2 gusting 6 9.4
2014-Oct-23 00:21 025 1 gusting 7 9.4
2014-Oct-23 00:16 031 3 gusting 7 9.4
2014-Oct-23 00:06 025 2 gusting 6 8.9
2014-Oct-23 00:01 020 1 gusting 6 8.3
2014-Oct-22 23:51 031 0 gusting 4 7.2
2014-Oct-22 23:46 031 0 gusting 3 7.2
2014-Oct-22 23:41 031 7.2
2014-Oct-22 23:36 030 8.3
2014-Oct-22 23:26 033 8.9
2014-Oct-22 23:21 031 9.4
2014-Oct-22 23:16 030 10.0
2014-Oct-22 23:06 032 1 gusting 9 10.6
2014-Oct-22 23:01 040 3 gusting 9 10.6